Burnet, TX

3:17 AM CDT on May 25, 2017 (GMT -0500)
Burnet Municipal-Craddock

Weather History for KBMQ - December, 2011

Change the Weather History Date:

Tuesday, December 6, 2011

  Actual Average Record
Temperature  
Mean Temperature 32 °F -  
Max Temperature 36 °F 59 °F 77 °F (1996)
Min Temperature 27 °F 40 °F 25 °F (2013)
Degree Days  
Heating Degree Days 33    
Moisture  
Dew Point 23 °F    
Average Humidity 72    
Maximum Humidity 88    
Minimum Humidity 56    
Precipitation  
Precipitation 0.00 in - - ()
Sea Level Pressure  
Sea Level Pressure 30.34 in    
Wind  
Wind Speed 10 mph (NNW)    
Max Wind Speed 16 mph    
Max Gust Speed 23 mph    
Visibility 10 miles    
Events      
Averages and records for this station are not official NWS values.
T = Trace of Precipitation, MM = Missing Value Source: NWS Daily Summary

Daily Weather History Graph

Daily Weather History Graph

Search for Another Location

Airport or City:

Trip Planner

Search our weather history database for the weather conditions in past years. The results will help you decide how hot, cold, wet, or windy it might be!

Date:

Astronomy

Dec. 06, 2011 Rise Set
Actual Time 7:16 AM CST 5:31 PM CST
Civil Twilight 6:50 AM CST 5:57 PM CST
Nautical Twilight 6:20 AM CST 6:27 PM CST
Astronomical Twilight 5:50 AM CST 6:56 PM CST
Moon 2:52 PM CST (12/6) 3:45 AM CST (12/6)
Length of Visible Light 11h 07m
Length of Day
10h 14m
Waxing Gibbous, 87% of the Moon is Illuminated
Dec 6
Waxing Gibbous
Dec 10
Full
Dec 17
Last Quarter
Dec 24
New
Jan 1
First Quarter

Hourly Weather History & Observations

Time (CST) Temp. Windchill Dew Point Humidity Pressure Visibility Wind Dir Wind Speed Gust Speed Precip Events Conditions
12:53 AM 32.0 °F 23.6 °F 28.9 °F 88% 30.31 in 4.0 mi NNW 10.4 mph 17.3 mph 0.00 in   Overcast
1:13 AM 32.0 °F 23.6 °F 28.4 °F 87% 30.30 in 4.0 mi North 10.4 mph - N/A   Overcast
1:53 AM 32.0 °F 24.2 °F 27.0 °F 82% 30.32 in 9.0 mi NNW 9.2 mph 19.6 mph N/A   Overcast
2:53 AM 32.0 °F 23.0 °F 26.1 °F 79% 30.32 in 10.0 mi NNW 11.5 mph 20.7 mph N/A   Overcast
3:08 AM 32.0 °F 23.0 °F 24.8 °F 75% 30.29 in 10.0 mi NNW 11.5 mph - N/A   Overcast
3:53 AM 30.9 °F 22.2 °F 26.1 °F 82% 30.30 in 10.0 mi NNW 10.4 mph - N/A   Partly Cloudy
4:53 AM 30.9 °F 24.3 °F 25.0 °F 79% 30.32 in 10.0 mi NW 6.9 mph - N/A   Mostly Cloudy
5:22 AM 30.2 °F 23.4 °F 24.8 °F 80% 30.31 in 10.0 mi NNW 6.9 mph - N/A   Overcast
5:53 AM 30.9 °F 22.8 °F 25.0 °F 79% 30.32 in 10.0 mi NNW 9.2 mph - N/A   Overcast
6:04 AM 30.2 °F 20.8 °F 24.8 °F 80% 30.30 in 10.0 mi NNW 11.5 mph 20.7 mph N/A   Overcast
6:53 AM 30.9 °F 22.8 °F 23.0 °F 72% 30.32 in 10.0 mi NNW 9.2 mph - N/A   Overcast
7:53 AM 30.0 °F 21.7 °F 21.9 °F 72% 30.36 in 10.0 mi North 9.2 mph - N/A   Overcast
8:53 AM 30.9 °F 22.8 °F 23.0 °F 72% 30.36 in 10.0 mi North 9.2 mph - N/A   Overcast
9:53 AM 30.9 °F 21.7 °F 21.9 °F 69% 30.38 in 10.0 mi NNW 11.5 mph 21.9 mph N/A   Overcast
10:53 AM 33.1 °F 23.4 °F 21.9 °F 64% 30.38 in 10.0 mi NNW 13.8 mph 19.6 mph N/A   Overcast
11:53 AM 33.1 °F 24.9 °F 23.0 °F 66% 30.38 in 10.0 mi NW 10.4 mph 20.7 mph N/A   Overcast
1:53 PM 34.0 °F 23.8 °F 21.0 °F 59% 30.34 in 10.0 mi NW 16.1 mph 23.0 mph N/A   Overcast
2:51 PM 35.6 °F 28.0 °F 21.2 °F 56% 30.30 in 10.0 mi NW 10.4 mph - N/A   Scattered Clouds
2:53 PM 35.1 °F 27.4 °F 21.9 °F 59% 30.32 in 10.0 mi WNW 10.4 mph - N/A   Scattered Clouds
3:53 PM 36.0 °F 27.1 °F 21.9 °F 57% 30.32 in 10.0 mi NNW 13.8 mph 20.7 mph N/A   Scattered Clouds
4:16 PM 35.6 °F 27.5 °F 23.0 °F 60% 30.30 in 10.0 mi NNW 11.5 mph 20.7 mph N/A   Mostly Cloudy
4:26 PM 35.6 °F 28.6 °F 23.0 °F 60% 30.30 in 10.0 mi NW 9.2 mph - N/A   Scattered Clouds
4:53 PM 34.0 °F 26.0 °F 21.9 °F 61% 30.33 in 10.0 mi NW 10.4 mph - N/A   Clear
5:53 PM 32.0 °F 24.8 °F 21.9 °F 66% 30.34 in 10.0 mi NNW 8.1 mph - N/A   Clear
6:53 PM 30.0 °F 22.4 °F 21.9 °F 72% 30.36 in 10.0 mi NW 8.1 mph - N/A   Partly Cloudy
7:53 PM 30.0 °F 24.1 °F 21.9 °F 72% 30.37 in 10.0 mi NNW 5.8 mph - N/A   Clear
8:53 PM 30.0 °F 22.4 °F 21.9 °F 72% 30.39 in 10.0 mi NNW 8.1 mph - N/A   Clear
9:53 PM 28.9 °F - 21.9 °F 75% 30.40 in 10.0 mi Calm Calm - N/A   Clear
10:53 PM 28.0 °F - 21.9 °F 78% 30.40 in 10.0 mi Calm Calm - N/A   Clear
11:53 PM 27.0 °F - 21.0 °F 78% 30.40 in 10.0 mi Calm Calm - N/A   Clear